Regional Weather Roundup
Issued by NWS Charleston, SC

Current Version | Previous Version | Text Only | Print | Product List | Glossary Off
Versions: 1 2 3 4 5 6 7 8 9 10 11 12 13 14 15 16 17 18 19 20 21 22 23 24 25 26 27 28 29 30 31 32 33 34 35 36 37 38 39 40 41 42 43 44 45 46 47 48 49 50
000 ASUS42 KCHS 241210 RWRCHS REGIONAL WEATHER ROUNDUP NATIONAL WEATHER SERVICE CHARLESTON SC 800 AM EDT FRI OCT 24 2014 NOTE: "FAIR" INDICATES FEW OR NO CLOUDS BELOW 12,000 FEET WITH NO SIGNIFICANT WEATHER AND/OR OBSTRUCTIONS TO VISIBILITY. NOT ALL STATIONS ARE QUALITY CONTROLLED BY THE NATIONAL WEATHER SERVICE. USE DATA WITH CAUTION...ESPECIALLY DEWPOINT OBSERVATIONS. SCZ027-030-031-034>040-042>050-241300- ...SOUTH CAROLINA... CITY SKY/WX TMP DP RH WIND PRES REMARKS N CHARLESTON MOCLDY 52 45 77 NE5 30.05R 6HR MIN TEMP: 49; 6HR MAX TEMP: 52; WATERFRONT PRK N/A 55 N/A N/A N7 N/A FORT JOHNSON NOT AVBL JOHNS ISLAND SUNNY 52 50 93 CALM 30.05R PINOPOLIS NOT AVBL MONCKS CORNER FAIR 50 50 100 CALM 30.05R FOG SUMMERVILLE FAIR 45 45 100 CALM 30.06R BEAUFORT MCAS PTCLDY 49 46 90 CALM 30.05R 6HR MIN TEMP: 48; 6HR MAX TEMP: 52; BEAUFORT ARPT FAIR 52 50 93 CALM 30.04S HILTON HEAD IS MOCLDY 54 50 87 W3 30.05S GEORGETOWN NOT AVBL WALTERBORO PTSUNNY 45 N/A N/A CALM 30.06R ORANGEBURG CLOUDY 47 44 90 CALM 30.06R 6HR MIN TEMP: 46; 6HR MAX TEMP: 50; BARNWELL FAIR 45 43 93 CALM 30.07R AIKEN FAIR 46 46 100 CALM 30.10R MANNING FAIR 48 N/A N/A CALM 30.05R KINGSTREE NOT AVBL COLUMBIA MOCLDY 45 42 89 NW3 30.06R 6HR MIN TEMP: 44; 6HR MAX TEMP: 52; SUMTER CLOUDY 47 43 86 NE5 30.04R 6HR MIN TEMP: 47; 6HR MAX TEMP: 53; FLORENCE CLOUDY 47 43 86 CALM 30.05R 6HR MIN TEMP: 46; 6HR MAX TEMP: 50; MYRTLE BEACH MOCLDY 50 43 76 N9 30.03R N MYRTLE BEACH PTCLDY 49 44 83 VRB3 30.03R 6HR MIN TEMP: 47; 6HR MAX TEMP: 52; $$ GAZ063-065-086>088-099>101-113>116-118-119-134-136>141-150-241300- ...GEORGIA... CITY SKY/WX TMP DP RH WIND PRES REMARKS SAVANNAH ARPT MOCLDY 50 45 83 CALM 30.05S 6HR MIN TEMP: 49; 6HR MAX TEMP: 52; HUNTER AAF MOCLDY 50 47 90 CALM 30.02F 6HR MIN TEMP: 46; 6HR MAX TEMP: 51; FORT STEWART MOCLDY 46 44 93 CALM 30.03S 6HR MIN TEMP: 45; 6HR MAX TEMP: 47; STATESBORO NOT AVBL SYLVANIA PTSUNNY 50 49 97 CALM 30.07R CLAXTON FAIR 45 45 100 CALM 30.05S THOMSON MOCLDY 46 46 100 CALM 30.11S AUGUSTA-BUSH CLOUDY 45 43 93 CALM 30.07R 6HR MIN TEMP: 42; 6HR MAX TEMP: 46; AUGUSTA-DANIEL CLOUDY 51 46 83 CALM 30.07R SWAINSBORO FAIR 45 45 100 MISG 30.07R FOG VIDALIA MOCLDY 50 46 87 CALM 30.06R ALMA CLOUDY 47 46 97 CALM 30.04R FOG 6HR MIN TEMP: 46; 6HR MAX TEMP: 49; WAYCROSS MOCLDY 50 48 94 CALM 30.04S JESUP FAIR 45 45 100 CALM 30.04S BRUNSWICK MOCLDY 50 46 87 CALM 30.04S SAINT SIMONS MOCLDY 52 49 89 NW6 30.03S 6HR MIN TEMP: 50; 6HR MAX TEMP: 52; $$ SCZ027-028-034-036>038-045-046-048>050-GAZ119-141-241300- ...LAKE AND SUPPLEMENTAL COASTAL OBSERVATIONS... STATION/POSITION TIME TEMP WIND PRES WAVE SWELL AIR SEA DIR/SP/G HT/PER HT/PER/DIR (UTC) (F) (DEG/KT/KT) (MB) (FT/S) (FT/S/D) UPR LAKE MARION NOT AVBL WINYAH BAY 1100 50 340/ 6 1016.0S LAKE MURRAY 1100 50 340/ 1/ 3 1017.3R ACE BASIN NERRS 1100 48 CALM 1016.0S FORT PULASKI 1200 56 330/ 7/ 8 1017.4F SAPELO ISLAND NOT AVBL $$ ANZ835-935-AMZ111-154-330-350-352-354-374-450-454-472-241300- ...C-MAN AND BUOY OBSERVATIONS... STATION/POSITION TIME TEMP WIND PRES WAVE SWELL AIR SEA DIR/SP/G HT/PER HT/PER/DIR (UTC) (F) (DEG/KT/KT) (MB) (FT/S) (FT/S/D) FOLLY BEACH CMAN 1100 57 10/ 9/ 10 1017.2R BUOY 41004 1200 68 78 20/ 6/ 10 1016.1R 3/11 2/11 BUOY 41008 1200 69 75 10/ 8/ 10 1016.7F 2/10 2/ 80/10 5E ST. MARYS GA 1200 76 N/A 2/ 8 FRYING PAN BUOY 1200 65 74 350/ 10/ 12 1016.6R 3/10 2/ 80/10 BUOY 41025 1200 62 320/ 17/ 23 1014.6R 4/ 6 2/ 30/ 8 CAPE LOOKOUT NC 1100 57 350/ 11/ 12 1015.2R BUOY 41002 1148 72 77 300/ 10/ 12 1015.2R 6/10 5/ 10/10 BUOY 41010 1200 73 81 40/ 10/ 16 1014.9R 3/ 8 3/ 50/ 8 BUOY 41012 NOT AVBL ST AUGUSTINE FL 1200 59 310/ 6/ 7 1016.7R CAPERS NEARSHORE NOT AVBL FRIPP NEARSHORE NOT AVBL $$

USA.gov is the U.S. government's official web portal to all federal, state and local government web resources and services.